HARMALA Weather Reports


Display with metric or nautical units.
time (UTC)temp
F
wind
direction
speed
MPH
gust
MPH
rain 1hr
in
rain 24hr
in
rain mn
in
humidity
%
barometer
mb
20260506050722 40 0.0 0.0 0.00 0.00 0.00 68 1010.4
20260506044722 39 0.0 0.0 0.00 0.00 0.00 70 1010.2
20260506042722 38 0.0 0.0 0.00 0.00 0.00 72 1010.1
20260506040722 37 0.0 0.0 0.00 0.00 0.00 75 1009.9
20260506034723 35 0.0 0.0 0.00 0.04 0.00 86 1009.8
20260506032722 31 0.0 0.0 0.00 0.04 0.00 94 1009.6
20260506030722 30 0.0 0.0 0.00 0.04 0.00 94 1009.4
20260506024722 30 0.0 0.0 0.00 0.05 0.00 94 1009.1
20260506022722 30 0.0 0.0 0.00 0.05 0.00 93 1008.9
20260506020722 31 0.0 0.0 0.00 0.05 0.00 91 1008.8
20260506014722 33 0.0 0.0 0.00 0.05 0.00 88 1008.6
20260506012721 33 0.0 0.0 0.00 0.05 0.00 88 1008.5
20260506010722 33 0.0 0.0 0.00 0.05 0.00 88 1008.3
20260506004721 33 0.0 0.0 0.00 0.05 0.00 86 1008.0
20260506002721 33 0.0 0.0 0.00 0.05 0.00 85 1007.9
20260506000721 32 0.0 0.0 0.00 0.05 0.00 85 1007.9
20260505234722 33 0.0 0.0 0.00 0.05 0.00 84 1007.7
20260505232722 32 0.0 0.0 0.00 0.05 0.00 84 1007.8
20260505230721 34 0.0 0.0 0.00 0.05 0.00 78 1007.7
20260505224721 35 0.0 0.0 0.00 0.05 0.00 77 1007.6
20260505222721 36 0.0 0.0 0.00 0.05 0.00 74 1007.5
20260505220721 37 0.0 0.0 0.00 0.05 0.00 71 1007.5
20260505214721 37 0.0 0.0 0.00 0.05 0.00 68 1007.4
20260505212721 38 0.0 0.0 0.00 0.05 0.00 66 1007.3
20260505210720 38 0.0 0.0 0.00 0.05 0.00 64 1007.1
20260505204721 39 0.0 0.0 0.00 0.07 0.05 61 1006.9
20260505202721 40 0.0 0.0 0.00 0.07 0.05 59 1006.7
20260505200720 40 0.0 0.0 0.00 0.07 0.05 58 1006.7
20260505194720 40 0.0 0.0 0.00 0.09 0.05 55 1006.6
20260505192721 41 0.0 0.0 0.00 0.09 0.05 53 1006.4
20260505190720 42 0.0 0.0 0.00 0.09 0.05 51 1006.2
20260505184720 42 0.0 0.0 0.00 0.09 0.05 49 1006.0
20260505182720 43 0.0 0.0 0.00 0.09 0.05 47 1005.7
20260505180720 44 0.0 0.0 0.00 0.09 0.05 46 1005.5
20260505174720 45 0.0 0.0 0.00 0.09 0.05 45 1005.3
20260505172719 46 0.0 0.0 0.00 0.09 0.05 46 1005.1
20260505170719 46 0.0 0.0 0.00 0.09 0.05 46 1005.1
20260505164720 47 0.0 0.0 0.00 0.09 0.05 43 1004.9
20260505162720 47 0.0 0.0 0.00 0.09 0.05 42 1004.7
20260505160720 47 0.0 0.0 0.00 0.09 0.05 40 1004.6
20260505152719 47 0.0 0.0 0.00 0.09 0.05 39 1004.4
20260505150719 48 0.0 0.0 0.00 0.09 0.05 38 1004.4
20260505124719 48 0.0 0.0 0.00 0.09 0.05 41 1003.7
20260505122719 47 0.0 0.0 0.00 0.09 0.05 42 1003.7
20260505120719 49 0.0 0.0 0.00 0.09 0.05 44 1003.4
20260505114719 48 0.0 0.0 0.00 0.09 0.05 44 1003.4
20260505112719 48 0.0 0.0 0.00 0.09 0.05 42 1003.1
20260505110718 47 0.0 0.0 0.00 0.09 0.05 42 1003.1
20260505100718 47 0.0 0.0 0.00 0.09 0.05 48 1002.4
20260505094718 46 0.0 0.0 0.00 0.09 0.05 60 1002.3
20260505092718 43 0.0 0.0 0.00 0.09 0.05 72 1002.5
20260505090718 45 0.0 0.0 0.00 0.09 0.05 65 1002.1
20260505084719 44 0.0 0.0 0.00 0.09 0.05 70 1002.0
20260505082718 42 0.0 0.0 0.00 0.09 0.05 73 1002.0
20260505080718 41 0.0 0.0 0.00 0.09 0.05 77 1001.7
20260505074718 40 0.0 0.0 0.00 0.09 0.05 83 1001.7
20260505072718 40 0.0 0.0 0.00 0.09 0.05 82 1001.3
20260505070717 40 0.0 0.0 0.00 0.09 0.05 86 1001.0
20260505064717 40 0.0 0.0 0.00 0.09 0.05 89 1000.6
20260505062717 39 0.0 0.0 0.00 0.09 0.05 89 1000.4
20260505060718 38 0.0 0.0 0.00 0.09 0.05 91 1000.3
20260505054717 38 0.0 0.0 0.00 0.09 0.05 91 1000.1
20260505052717 38 0.0 0.0 0.00 0.09 0.05 91 1000.1